Weather in Odoyevskoye

Russia / Kostroma Oblast     58°09′43″N   45°51′46″E
temp.,
°C
wind,
m/s
gust,
m/s
humid.,
%
clouds,
%
prec.,
mm/h
press.,
hPa
HPBL,
m
15 may, sat
sat1500:00+15ssw2285100 0.0 101728
03:00+13nne119695 0.4 101716
06:00+16e2693100 0.2 1016163
09:00+21sse3771100 0.2 1014559
12:00+26sse355494 0.0 10131276
15:00+28s474574 0.0 10111976
18:00+22sw51275100 1.6 1011732
21:00+16nne239649 2.6 101365
16 may, sun
sun1600:00+15se269831 0.3 1013126
03:00+14s27977 0.3 1013149
06:00+17ssw39911 0.0 1013312
09:00+21ssw59625 0.0 10131134
12:00+24sw69415 0.0 10131929
15:00+24sw59410 0.0 10122305
18:00+22sw48548 0.0 10121103
21:00+17ssw2878100 0.4 1013188
17 may, mon
mon1700:00+15sw310865 0.1 1014251
03:00+13sw210920 0.1 1015222
06:00+15wsw26831 0.0 1016246
09:00+20wsw34615 0.0 1017990
12:00+24wsw354763 0.0 10171694
15:00+25wsw35425 0.0 10172058
18:00+23wsw125640 0.0 101683
21:00+17sw007377 0.0 101711
18 may, tue
tue1800:00+16ese117675 0.0 101711
03:00+14ese22817 0.0 101727
06:00+17ese24735 0.0 1017142
09:00+24se35571 0.0 1017649
12:00+28se34390 0.0 10161598
15:00+29sse35275 0.0 10153061
18:00+25se384623 0.0 1014311
21:00+19sse35700 0.0 101580
19 may, wed
wed1900:00+16se38660 0.0 1015121
03:00+15se310720 0.0 1014174
06:00+18se4116447 0.0 1014314
09:00+24se51046100 0.0 1013534
12:00+28sse593435 0.0 10121220
15:00+29se693210 0.0 10113193
18:00+26se6124315 0.0 10091156
21:00+22se5156012 0.1 1008884